Hourly Data Report for October 15, 2014

All times are specified in Local Standard Time (LST). Add 1 hour to adjust for Daylight Saving Time where and when it is observed.

SAINT JOHN A
NEW BRUNSWICK

45°18'58.000" N
65°53'24.000" W
108.80 m
8104901
71609
YSJ

Download Data

Hourly Data (October 2014)
Hourly Data Report for October 15, 2014
Temp Definition
°C
Dew Point Temp Definition
°C
Rel Hum Definition
%
Wind Dir Definition
10's deg

Wind Spd Definition
km/h
Visibility Definition
km
Stn Press Definition
kPa
Hmdx Definition


Wind Chill Definition


Weather Definition


TIME
00:00 Legend Double Dagger 14.0 14.0 100 21 20 4.8 100.73     Fog
01:00 Legend Double Dagger 14.2 14.2 100 22 14 8.1 100.69     Fog
02:00 Legend Double Dagger 14.7 14.7 100 22 30 4.8 100.63     Fog
03:00 Legend Double Dagger 14.5 14.5 100 23 32 3.2 100.60     Fog
04:00 Legend Double Dagger 14.3 14.3 100 22 26 1.2 100.56     Fog
05:00 Legend Double Dagger 14.4 14.4 100 22 26 1.0 100.61     Fog
06:00 Legend Double Dagger 14.5 14.5 100 23 27 1.6 100.60     Fog
07:00 Legend Double Dagger 14.6 14.6 100 23 26 4.8 100.62     Fog
08:00 Legend Double Dagger 14.7 14.7 100 22 26 1.6 100.64     Fog
09:00 Legend Double Dagger 14.9 14.9 100 22 23 1.6 100.62     Fog
10:00 Legend Double Dagger 15.3 15.3 100 22 23 1.6 100.63     Fog
11:00 Legend Double Dagger 17.4 15.6 89 21 25 16.1 100.61     Mostly Cloudy
12:00 Legend Double Dagger 18.0 15.8 87 21 30 24.1 100.59     LegendNANA
13:00 Legend Double Dagger 19.0 15.9 82 21 25 24.1 100.55     LegendNANA
14:00 Legend Double Dagger 19.7 16.0 79 20 23 24.1 100.54     Mostly Cloudy
15:00 Legend Double Dagger 18.6 15.7 83 20 21 24.1 100.53     LegendNANA
16:00 Legend Double Dagger 16.9 15.4 91 21 16 24.1 100.53     LegendNANA
17:00 Legend Double Dagger 15.9 15.3 96 20 19 19.3 100.56     Cloudy
18:00 Legend Double Dagger 15.1 15.1 100 20 9 4.8 100.58     Fog
19:00 Legend Double Dagger 15.1 15.1 100 22 10 2.4 100.59     Fog
20:00 Legend Double Dagger 14.8 14.8 100 21 9 0.4 100.64     Fog
21:00 Legend Double Dagger 14.8 14.8 100 20 11 0.4 100.66     Fog
22:00 Legend Double Dagger 14.7 14.7 100 18 6 0.4 100.66     Fog
23:00 Legend Double Dagger 15.1 15.1 100 21 7 0.4 100.65     Fog

Notes on Data Quality.

Legend

  • E = Estimated
  • M = Missing
  • NA = Not Available
  • ‡ = Partner data that is not subject to review by the National Climate Archives
Date modified: